Regional Weather Roundup
Issued by NWS

Home | Current Version | Previous Version | Text Only | Print | Product List | Glossary On
Versions: 1 2 3 4 5 6 7 8 9 10 11 12 13 14 15 16 17 18 19 20 21 22 23 24 25 26 27 28 29 30 31 32 33 34 35 36 37 38 39 40 41 42 43 44 45 46 47 48 49 50
001
ASUS43 KDTX 101410
RWRMI
MICHIGAN HOURLY REGIONAL WEATHER ROUNDUP
NATIONAL WEATHER SERVICE DETROIT/PONTIAC MI
900 AM EST WED FEB 10 2016

NOTE: "FAIR" INDICATES FEW OR NO CLOUDS BELOW 12,000 FEET WITH NO
SIGNIFICANT WEATHER AND/OR OBSTRUCTION TO VISIBILITY.

MIZ047>049-052>055-059>063-066>070-074>076-081>083-101500-
SOUTHEAST LOWER MICHIGAN

CITY           SKY/WX    TMP DP  RH WIND       PRES   REMARKS
ADRIAN         PTSUNNY   19  12  74 W12       29.83R WCI   7
ALMA           CLOUDY    18   9  68 NW12      29.82R WCI   5
ANN ARBOR      CLOUDY    19  11  70 W16G23    29.79R WCI   4
BAD AXE        FLURRIES  14  10  84 NW10      29.75R WCI   2
CARO           CLOUDY    14   7  73 NW12G20   29.78R WCI   0
DETROIT CITY   LGT SNOW  19  13  77 NW9       29.79R VSB 1   WCI   8
DETROIT        LGT SNOW  19  14  79 W15G22    29.81R WCI   5
FLINT          LGT SNOW  18  11  74 NW9       29.79S VSB 1   WCI   7
GROSSE ILE     CLOUDY    21  16  79 W9        29.79R WCI  11
HILLSDALE      CLOUDY    18  11  74 NW14      29.80R WCI   4
HOWELL         PTSUNNY   17  11  76 NW10G16   29.78R WCI   5

CITY           SKY/WX    TMP DP  RH WIND       PRES   REMARKS
JACKSON        CLOUDY    18   8  65 N13       29.81R WCI   5
LAMBERTVILLE   CLOUDY    20  13  74 W8        29.83S WCI  10
LANSING        CLOUDY    17   6  62 NW15G21   29.82R WCI   2
LAPEER         CLOUDY    15   8  74 N17G23    29.77R WCI  -2
MASON          CLOUDY    17   8  69 NW10      29.81R WCI   5
MONROE         LGT SNOW  20  16  83 W12       29.81R WCI   8
MT. CLEMENS    FLURRIES  18  12  76 NW14      29.77R WCI   4
PONTIAC        LGT SNOW  16  10  77 NW14      29.75S WCI   2
PORT HOPE        N/A     16  12  84 NW18G26   29.73R WCI   0
PORT HURON     LGT SNOW  18  14  86 W8        29.76R WCI   7
TRI CITIES     CLOUDY    16   7  67 NW10      29.82R WCI   4
MIDLAND        CLOUDY    15   6  69 NW7       29.81R WCI   5
TROY           CLOUDY    19  12  73 NW12G21   29.80R WCI   7
SAGINAW HB     LGT SNOW  16  12  86 N9        29.81R WCI   4
$$
MIZ043>046-050>051-056>058-064>065-071>073-077>080-101500-
SOUTHWEST LOWER MICHIGAN

CITY           SKY/WX    TMP DP  RH WIND       PRES   REMARKS
BATTLE CREEK   CLOUDY    18   9  68 NW10      29.84R WCI   6
BENTON HARBOR  HVY SNOW  18  14  84 VRB6G16   29.92R VSB<1/4 WCI  10
BIG RAPIDS     LGT SNOW  16  11  81 NW9       29.81R WCI   4
COLDWATER      LGT SNOW  19  15  86 NW8       29.84R VSB 1   WCI   9
FREMONT        FLURRIES  17  11  78 NW9       29.86R WCI   5
HOLLAND        LGT SNOW  18  13  80 N9        29.89R WCI   7
GRAND RAPIDS   FLURRIES  18  10  71 NW15      29.85R WCI   4
IONIA          CLOUDY    17   9  70 NW8       29.83R WCI   7
KALAMAZOO      LGT SNOW  18  12  77 NW9       29.86R WCI   7
LUDINGTON      LGT SNOW  15   9  76 N15G23    29.90R WCI   0
MARSHALL       PTSUNNY   19  11  70 NW9       29.82S WCI   8
MOUNT PLEASANT CLOUDY    18   7  63 NW8       29.81R WCI   7
MUSKEGON       LGT SNOW  18  11  74 NW15      29.90R VSB 3/4 WCI   4
SOUTH HAVEN    FLURRIES  19  12  73 N10       29.90R WCI   8
$$
MIZ016>042-101500-
NORTHERN LOWER MICHIGAN

CITY           SKY/WX    TMP DP  RH WIND       PRES   REMARKS
ALPENA         LGT SNOW   8   3  80 W7        29.77S VSB 1   WCI  -3
BEAVER ISLAND  CLOUDY    11   2  67 N10G23    29.86R WCI  -2
BELLAIRE       CLOUDY    14   5  68 N5        29.84R WCI   6
CADILLAC       LGT SNOW  13   8  78 NW12      29.76R WCI   0
CHARLEVOIX     LGT SNOW  13   7  78 N15G22    29.86R VSB 3/4 WCI  -3
FRANKFORT      LGT SNOW  16  11  81 NW15G23   29.87R VSB 1   WCI   1
GAYLORD        CLOUDY     8  -1  66 MISG      29.75R
GRAYLING       CLOUDY     9   2  75 NW10G17   29.78R WCI  -5
HARBOR SPRINGS CLOUDY     8   0  68 NW8       29.83R WCI  -4
HOUGHTON LAKE  CLOUDY    10   2  69 N12       29.77R WCI  -5
MANISTEE       CLOUDY    16   7  67 NW17G23   29.87R WCI   0
OSCODA         LGT SNOW   9   3  75 MISG      29.78R
PELLSTON       CLOUDY     6  -1  73 NW13      29.83R WCI -10
ROGERS CITY    LGT SNOW   8   3  78 NW13G21   29.80R WCI  -7
TRAVERSE CITY  FLURRIES  17   5  59 N14G24    29.83R WCI   3
$$
MIZ007>008-015-101500-
EASTERN UPPER MICHIGAN

CITY           SKY/WX    TMP DP  RH WIND       PRES   REMARKS
KINROSS        CLOUDY     1  -6  71 N10       29.82R WCI -14
MACKINAC ISLAN CLOUDY     6   1  80 N12       29.82R WCI -10
NEWBERRY       SNOW       7   4  86 N9        29.83R VSB 1/2 WCI  -6
S. S. MARIE    PTSUNNY    1 -10  60 N13       29.83R WCI -17
MUNISING         N/A     10   6  84 N20       29.90R WCI  -9
$$
MIZ004>006-011>014-085-101500-
CENTRAL UPPER MICHIGAN

CITY           SKY/WX    TMP DP  RH WIND       PRES   REMARKS
MANISTIQUE     LGT SNOW   9   4  80 N12G17    29.88R WCI  -6
ESCANABA       CLEAR      7  -2  66 NW14G22   29.93S WCI -10
MENOMINEE      CLEAR      5  -6  61 NW10G18   29.97R WCI -10
$$
MIZ001>003-009>011-084-101500-
WESTERN UPPER MICHIGAN

CITY           SKY/WX    TMP DP  RH WIND       PRES   REMARKS
IRON MOUNTAIN  CLOUDY     3  -6  66 NW9       29.95R WCI -12
HOUGHTON       HAZE       4  -3  73 N16       29.98R VSB 3/4 WCI -15
COPPER HARBOR    N/A     10   6  84 NE20G33   29.99R WCI  -9
IRONWOOD       CLOUDY     5   0  78 N8        29.99S VSB 1   WCI  -8
$$

ABBREVIATIONS USED IN REMARKS
   TC - TEMPERATURE IN CELSIUS
  WCI - WIND CHILL INDEX
   HX - HEAT INDEX
  VSB - VISIBILITY





USA.gov is the U.S. government's official web portal to all federal, state and local government web resources and services.